Centralia, IL

1:12 PM CST on February 26, 2017 (GMT -0600)
Centralia Municipal

Weather History for KENL - July, 2013

Change the Weather History Date:

Monday, July 15, 2013

  Actual Average (KSLO) Record (KSLO)
Temperature  
Mean Temperature 82 °F -  
Max Temperature 90 °F 89 °F 104 °F (1980)
Min Temperature 73 °F 68 °F 55 °F (1990)
Cooling Degree Days 16    
Growing Degree Days 32 (Base 50)    
Moisture  
Dew Point 74 °F    
Average Humidity 78    
Maximum Humidity 92    
Minimum Humidity 63    
Precipitation  
Precipitation 0.14 in - - ()
Sea Level Pressure  
Sea Level Pressure 30.21 in    
Wind  
Wind Speed 2 mph (ESE)    
Max Wind Speed 9 mph    
Max Gust Speed -    
Visibility 9 miles    
Events Rain    
Averages and records for this station are not official NWS values.
T = Trace of Precipitation, MM = Missing Value Source: NWS Daily Summary

Daily Weather History Graph

Daily Weather History Graph

Search for Another Location

Airport or City:

Trip Planner

Search our weather history database for the weather conditions in past years. The results will help you decide how hot, cold, wet, or windy it might be!

Date:

Astronomy

Jul. 15, 2013 Rise Set
Actual Time 5:44 AM CDT 8:19 PM CDT
Civil Twilight 5:13 AM CDT 8:50 PM CDT
Nautical Twilight 4:35 AM CDT 9:28 PM CDT
Astronomical Twilight 3:52 AM CDT 10:11 PM CDT
Moon 12:57 PM CDT (7/15) No Moon Set
Length of Visible Light 15h 36m
Length of Day
14h 35m
Waxing Crescent, 45% of the Moon is Illuminated
Jul 15
Waxing Crescent
Jul 15
First Quarter
Jul 22
Full
Jul 29
Last Quarter
Aug 6
New

Hourly Weather History & Observations

Time (CDT) Temp. Heat Index Dew Point Humidity Pressure Visibility Wind Dir Wind Speed Gust Speed Precip Events Conditions
12:15 AM 75.6 °F - 73.0 °F 92% 30.16 in 4.0 mi Calm Calm - N/A   Clear
12:35 AM 75.0 °F - 72.5 °F 92% 30.16 in 5.0 mi Calm Calm - N/A   Clear
12:55 AM 75.2 °F - 72.7 °F 92% 30.16 in 7.0 mi Calm Calm - N/A   Clear
1:15 AM 74.3 °F - 71.6 °F 91% 30.16 in 7.0 mi Calm Calm - N/A   Clear
1:35 AM 73.8 °F - 71.2 °F 92% 30.16 in 7.0 mi Calm Calm - N/A   Clear
1:55 AM 74.3 °F - 71.8 °F 92% 30.16 in 5.0 mi Calm Calm - N/A   Clear
2:15 AM 74.3 °F - 71.8 °F 92% 30.17 in 5.0 mi Calm Calm - N/A   Clear
2:35 AM 75.6 °F - 72.5 °F 90% 30.17 in 10.0 mi Calm Calm - N/A   Clear
2:55 AM 75.6 °F - 72.1 °F 89% 30.17 in 10.0 mi Calm Calm - N/A   Clear
3:15 AM 74.8 °F - 71.8 °F 90% 30.17 in 10.0 mi ESE 3.5 mph - N/A   Clear
3:35 AM 76.3 °F - 72.1 °F 87% 30.17 in 10.0 mi Calm Calm - N/A   Clear
3:55 AM 76.5 °F - 72.1 °F 86% 30.17 in 10.0 mi ESE 3.5 mph - N/A   Clear
4:15 AM 76.3 °F - 72.1 °F 87% 30.17 in 10.0 mi Calm Calm - N/A   Clear
4:35 AM 75.9 °F - 71.8 °F 87% 30.17 in 10.0 mi Calm Calm - N/A   Clear
4:55 AM 75.2 °F - 71.6 °F 89% 30.17 in 10.0 mi Calm Calm - N/A   Clear
5:15 AM 75.4 °F - 71.8 °F 89% 30.17 in 10.0 mi ESE 3.5 mph - N/A   Clear
5:35 AM 75.4 °F - 71.8 °F 89% 30.19 in 10.0 mi Calm Calm - N/A   Clear
5:55 AM 74.5 °F - 71.6 °F 91% 30.20 in 7.0 mi Calm Calm - N/A   Clear
6:15 AM 75.4 °F - 72.1 °F 90% 30.20 in 10.0 mi Calm Calm - N/A   Clear
6:35 AM 76.1 °F - 72.5 °F 89% 30.21 in 10.0 mi East 3.5 mph - N/A   Clear
6:55 AM 77.4 °F - 73.2 °F 87% 30.22 in 10.0 mi ESE 3.5 mph - N/A   Clear
7:15 AM 78.4 °F - 73.6 °F 85% 30.22 in 10.0 mi ESE 4.6 mph - N/A   Clear
7:35 AM 79.9 °F - 73.8 °F 81% 30.22 in 10.0 mi SE 5.8 mph - N/A   Clear
7:55 AM 81.1 °F 86.6 °F 73.9 °F 79% 30.23 in 10.0 mi SE 6.9 mph - N/A   Clear
8:15 AM 82.0 °F 87.9 °F 73.9 °F 76% 30.23 in 10.0 mi SE 8.1 mph - N/A   Clear
8:35 AM 83.3 °F 90.2 °F 74.1 °F 74% 30.23 in 10.0 mi SSE 9.2 mph - N/A   Clear
8:55 AM 84.2 °F 91.6 °F 74.3 °F 72% 30.23 in 10.0 mi South 9.2 mph - N/A   Clear
9:15 AM 84.4 °F 92.0 °F 74.5 °F 72% 30.23 in 10.0 mi SSE 5.8 mph - N/A   Clear
9:35 AM 84.9 °F 92.9 °F 74.5 °F 71% 30.24 in 10.0 mi SE 6.9 mph - N/A   Clear
9:55 AM 85.8 °F 94.2 °F 74.7 °F 69% 30.24 in 10.0 mi SSE 5.8 mph - N/A   Clear
10:15 AM 86.4 °F 94.6 °F 74.1 °F 67% 30.25 in 10.0 mi South 4.6 mph - N/A   Clear
10:35 AM 87.1 °F 94.9 °F 73.8 °F 64% 30.25 in 10.0 mi Calm Calm - N/A   Clear
10:55 AM 88.3 °F 97.4 °F 74.5 °F 63% 30.25 in 10.0 mi SE 4.6 mph - N/A   Clear
11:15 AM 87.1 °F 95.4 °F 74.1 °F 65% 30.25 in 10.0 mi Calm Calm - N/A   Clear
11:35 AM 86.2 °F 93.8 °F 73.8 °F 66% 30.25 in 10.0 mi South 4.6 mph - N/A   Clear
11:55 AM 87.8 °F 96.1 °F 73.8 °F 63% 30.25 in 10.0 mi South 4.6 mph - N/A   Clear
12:15 PM 86.0 °F 94.2 °F 74.1 °F 68% 30.25 in 10.0 mi Calm Calm - N/A   Clear
12:35 PM 85.6 °F 94.6 °F 75.4 °F 71% 30.25 in 10.0 mi Calm Calm - N/A Rain Light Rain
12:55 PM 86.5 °F 94.6 °F 73.9 °F 66% 30.24 in 10.0 mi Calm Calm - N/A   Clear
1:15 PM 86.0 °F 95.5 °F 75.7 °F 71% 30.24 in 10.0 mi Calm Calm - N/A Rain Light Rain
1:35 PM 85.5 °F 95.0 °F 76.1 °F 73% 30.25 in 7.0 mi SE 5.8 mph - N/A Rain Rain
1:55 PM 81.0 °F 86.5 °F 74.7 °F 81% 30.24 in 1.8 mi East 4.6 mph - 0.13 in Rain Heavy Rain
2:15 PM 82.6 °F 91.1 °F 76.8 °F 83% 30.23 in 10.0 mi Calm Calm - 0.01 in Rain Light Rain
2:35 PM 85.1 °F 95.8 °F 77.0 °F 77% 30.23 in 10.0 mi ESE 3.5 mph - 0.01 in   Clear
2:55 PM 87.4 °F 98.7 °F 76.5 °F 70% 30.22 in 10.0 mi ESE 3.5 mph - 0.01 in   Clear
3:15 PM 87.6 °F 99.7 °F 77.0 °F 71% 30.22 in 10.0 mi ENE 3.5 mph - N/A   Clear
3:35 PM 90.0 °F 101.9 °F 76.1 °F 64% 30.21 in 10.0 mi East 5.8 mph - N/A   Clear
3:55 PM 87.1 °F 96.8 °F 75.4 °F 68% 30.21 in 10.0 mi East 6.9 mph - N/A   Clear
4:15 PM 87.3 °F 97.2 °F 75.6 °F 68% 30.20 in 10.0 mi ESE 4.6 mph - N/A   Clear
4:35 PM 88.3 °F 98.4 °F 75.0 °F 65% 30.21 in 10.0 mi ESE 3.5 mph - N/A   Clear
4:55 PM 89.1 °F 99.1 °F 75.0 °F 63% 30.20 in 10.0 mi East 3.5 mph - N/A   Clear
5:15 PM 88.9 °F 99.2 °F 75.2 °F 64% 30.20 in 10.0 mi ESE 5.8 mph - N/A   Clear
5:35 PM 88.9 °F 99.2 °F 75.2 °F 64% 30.20 in 10.0 mi ESE 4.6 mph - N/A   Clear
5:55 PM 88.0 °F 97.0 °F 74.3 °F 64% 30.20 in 10.0 mi ESE 8.1 mph - N/A   Clear
6:15 PM 86.0 °F 95.5 °F 75.6 °F 71% 30.20 in 10.0 mi ENE 3.5 mph - N/A   Clear
6:35 PM 86.5 °F 96.9 °F 76.1 °F 71% 30.20 in 10.0 mi Calm Calm - N/A   Clear
6:55 PM 87.8 °F 99.1 °F 76.6 °F 69% 30.20 in 10.0 mi Calm Calm - N/A   Clear
7:15 PM 86.9 °F 97.8 °F 76.3 °F 71% 30.20 in 10.0 mi ESE 5.8 mph - N/A   Clear
7:35 PM 86.0 °F 94.2 °F 74.1 °F 68% 30.21 in 10.0 mi SE 3.5 mph - N/A   Clear
7:55 PM 84.9 °F 92.5 °F 74.3 °F 70% 30.21 in 10.0 mi Calm Calm - N/A   Clear
8:15 PM 83.3 °F 90.5 °F 74.7 °F 75% 30.21 in 10.0 mi Calm Calm - N/A   Clear
8:35 PM 82.4 °F 89.0 °F 74.7 °F 77% 30.22 in 10.0 mi Calm Calm - N/A   Clear
8:55 PM 81.7 °F 88.3 °F 75.2 °F 81% 30.23 in 10.0 mi ESE 3.5 mph - N/A   Clear
9:15 PM 81.0 °F 86.9 °F 75.2 °F 83% 30.23 in 10.0 mi ESE 4.6 mph - N/A   Clear
9:35 PM 81.5 °F 87.6 °F 74.7 °F 80% 30.24 in 10.0 mi ESE 3.5 mph - N/A   Clear
9:55 PM 81.0 °F 86.5 °F 74.5 °F 81% 30.25 in 10.0 mi ESE 3.5 mph - N/A   Clear
10:15 PM 80.4 °F 85.5 °F 74.3 °F 82% 30.25 in 10.0 mi Calm Calm - N/A   Clear
10:35 PM 79.9 °F - 74.3 °F 83% 30.26 in 10.0 mi East 3.5 mph - N/A   Clear
10:55 PM 79.7 °F - 74.3 °F 83% 30.26 in 10.0 mi East 3.5 mph - N/A   Clear
11:15 PM 79.2 °F - 74.3 °F 85% 30.26 in 10.0 mi East 3.5 mph - N/A   Clear
11:35 PM 78.8 °F - 73.9 °F 85% 30.26 in 10.0 mi Calm Calm - N/A   Clear
11:55 PM 77.0 °F - 73.6 °F 89% 30.26 in 10.0 mi Calm Calm - N/A   Clear